Regional Weather Roundup
Issued by NWS

Home | Current Version | Previous Version | Text Only | Print | Product List | Glossary On
Versions: 1 2 3 4 5 6 7 8 9 10 11 12 13 14 15 16 17 18 19 20 21 22 23 24 25 26 27 28 29 30 31 32 33 34 35 36 37 38 39 40 41 42 43 44 45 46 47 48 49 50
683
ASUS46 KSEW 280410
RWRWA

WASHINGTON REGIONAL WEATHER ROUNDUP
NATIONAL WEATHER SERVICE SEATTLE WA
900 PM PDT THU JUL 27 2017

NOTE:"FAIR" INDICATES FEW OR NO CLOUDS BELOW 12,000 FEET WITH NO
SIGNIFICANT WEATHER AND/OR OBSTRUCTIONS TO VISIBILITY.

WAZ507-509-555>559-280500-
SEATTLE, TACOMA, EVERETT, AND VICINITY

CITY           SKY/WX    TMP DP  RH WIND       PRES   REMARKS
EVERETT        PTCLDY    58  51  78 NW8       30.12S
BOEING FIELD   CLEAR     65  56  72 NW5       30.09S
RENTON         CLEAR     67  56  67 W6        30.09S
SEATAC AIRPORT PTCLDY    64  55  72 NW5       30.10S
JBLM-MCCHORD   CLEAR     66  58  75 NE5       30.10S
PUYALLUP       FAIR      63  57  82 CALM      30.10S
BREMERTON      PTCLDY    60  55  83 NE5       30.10S
JBLM-FT LEWIS  CLEAR     67  57  69 NW3       30.08S
TACOMA NARROWS CLEAR     62  55  77 NE5       30.10F
$$

WAZ001-503-506-510-514-515-280500-
NORTH INTERIOR

CITY           SKY/WX    TMP DP  RH WIND       PRES   REMARKS
BELLINGHAM     CLEAR     63  54  72 S10       30.08F
FRIDAY HARBOR  CLEAR     55  51  86 CALM      30.08F
EASTSOUND      CLEAR     61  52  72 S14       30.07S
PORT ANGELES   CLEAR     56  51  84 W9        30.12S
EDIZ HOOK      FAIR      56  51  81 W15       30.11S
PORT TOWNSEND  FAIR      57  52  82 CALM      30.11S
NAS WHIDBEY    PTCLDY    58  48  69 SW9       30.14F
ARLINGTON      CLOUDY    62  53  72 NW9       30.11F
BURLINGTON     CLEAR     61  52  72 SW6       30.11S
$$

WAZ020-022-039-040-504-511-512-280500-
SOUTHWEST INTERIOR

CITY           SKY/WX    TMP DP  RH WIND       PRES   REMARKS
SHELTON        CLEAR     65  52  62 SW8       30.08R
OLYMPIA        CLEAR     66  54  65 NW6       30.09S
CHEHALIS       FAIR      64  54  68 CALM      30.10R
KELSO          CLEAR     65  53  65 NW7       30.09R
VANCOUVER      CLEAR     71  55  56 N3        30.04R
SCAPPOOSE, OR  CLEAR     69  53  56 NW9       30.04S
PORTLAND, OR   CLEAR     70  55  59 NW8       30.04S
$$

WAZ021-516-517-280500-
WASHINGTON COAST

CITY           SKY/WX    TMP DP  RH WIND       PRES   REMARKS
FORKS          CLEAR     57  52  83 NW6       30.13F
HOQUIAM        CLEAR     59  51  75 W7        30.12F
ASTORIA, OR    CLEAR     60  51  72 NW10      30.13S
$$

WAZ019-023-024-040-567>569-280500-
CASCADE MOUNTAINS AND COLUMBIA GORGE

CITY           SKY/WX    TMP DP  RH WIND       PRES   REMARKS
STAMPEDE PASS  CLEAR     52  49  89 VRB7      30.15S
TROUTDALE, OR  CLEAR     72  55  55 NW8       30.03R
HOOD RIVER, OR CLEAR     72  50  46 NW8       29.99S
THE DALLES, OR CLEAR     76  53  44 N7        29.93R
$$

WAZ026-027-041>044-520-521-280500-
EAST SLOPES

CITY           SKY/WX    TMP DP  RH WIND       PRES   REMARKS
OMAK           CLEAR     81  38  21 SE5       29.84R
WENATCHEE      CLEAR     79  44  28 NW8       29.92R
ELLENSBURG     CLEAR     72  41  32 NW25G35   29.98R
YAKIMA         CLEAR     81  48  31 NW12      29.93R
SUNNYSIDE ARPT   N/A     76  56  49 W6        29.88R
YAKIMA TC      FAIR      74  38  27 SE5       29.93R
$$

WAZ028-034-035-280500-
COLUMBIA BASIN

CITY           SKY/WX    TMP DP  RH WIND       PRES   REMARKS
EPHRATA        CLEAR     81  41  24 W12       29.87S
MOSES LAKE     CLEAR     82  50  32 W7        29.88S
PASCO          CLEAR     88  47  24 W8        29.86R
RICHLAND ARPT  CLEAR     83  47  27 N7        29.86R
HERMISTON, OR  CLEAR     81  49  32 SW10      29.88R
$$

WAZ036>038-280500-
NORTHEAST WASHINGTON

CITY           SKY/WX    TMP DP  RH WIND       PRES   REMARKS
SPOKANE GEIGER PTCLDY    80  38  22 SW7       29.96R
SPOKANE FELTS  CLEAR     76  39  26 CALM      29.94R
FAIRCHILD AFB  CLEAR     75  39  27 SW7       29.96S
COEURDALENE,ID CLEAR     70  47  43 SW5       29.96R
DEER PARK      CLEAR     69  36  29 S5        29.94S
$$

WAZ029>033-280500-
SOUTHEAST WASHINGTON

CITY           SKY/WX    TMP DP  RH WIND       PRES   REMARKS
PULLMAN        CLEAR     72  40  31 E3        30.01R
LEWISTON, ID   CLEAR     84  38  19 NW6       29.92R
WALLA WALLA    CLEAR     85  43  22 S3        29.92R
PENDLETON, OR  CLEAR     75  38  26 W7        29.94R
$$




USA.gov is the U.S. government's official web portal to all federal, state and local government web resources and services.